| time (UTC) | temp F | wind direction | speed MPH | gust MPH | rain 1hr in | rain 24hr in | rain mn in | humidity % | barometer mb |
| 20260901054653 | 78 | 208 | 7.0 | 10.0 | 0.00 | 0.00 | 0.00 | 85 | 1015.0 |
| 20260901054149 | 78 | 202 | 6.0 | 9.0 | 0.00 | 0.00 | 0.00 | 85 | 1014.8 |
| 20260901053645 | 78 | 208 | 9.0 | 10.0 | 0.00 | 0.00 | 0.00 | 86 | 1014.7 |
| 20260901053141 | 78 | 213 | 5.0 | 9.0 | 0.00 | 0.00 | 0.00 | 86 | 1014.9 |
| 20260901052636 | 78 | 222 | 7.0 | 10.0 | 0.00 | 0.00 | 0.00 | 86 | 1014.8 |
| 20260901052131 | 78 | 222 | 3.0 | 7.0 | 0.00 | 0.00 | 0.00 | 87 | 1014.9 |
| 20260901051630 | 78 | 212 | 2.0 | 9.0 | 0.00 | 0.00 | 0.00 | 86 | 1014.8 |
| 20260901051130 | 78 | 203 | 8.0 | 8.0 | 0.00 | 0.00 | 0.00 | 86 | 1014.8 |
| 20260901050625 | 78 | 226 | 4.0 | 10.0 | 0.00 | 0.00 | 0.00 | 86 | 1014.9 |
| 20260901050120 | 79 | 242 | 2.0 | 9.0 | 0.00 | 0.00 | 0.00 | 86 | 1015.0 |
| 20260901045615 | 79 | 216 | 4.0 | 9.0 | 0.00 | 0.21 | 0.21 | 86 | 1015.0 |
| 20260901045110 | 79 | 229 | 4.0 | 9.0 | 0.00 | 0.21 | 0.21 | 86 | 1015.1 |
| 20260901044606 | 79 | 204 | 7.0 | 11.0 | 0.00 | 0.21 | 0.21 | 85 | 1014.9 |
| 20260901044101 | 79 | 222 | 4.0 | 8.0 | 0.00 | 0.21 | 0.21 | 85 | 1014.9 |
| 20260901043557 | 79 | 226 | 2.0 | 6.0 | 0.00 | 0.21 | 0.21 | 85 | 1015.0 |
| 20260901043052 | 79 | 208 | 5.0 | 8.0 | 0.00 | 0.21 | 0.21 | 85 | 1015.0 |
| 20260901042551 | 79 | 203 | 9.0 | 13.0 | 0.00 | 0.21 | 0.21 | 85 | 1015.1 |
| 20260901042047 | 80 | 187 | 3.0 | 10.0 | 0.00 | 0.21 | 0.21 | 85 | 1014.9 |
| 20260901041542 | 80 | 200 | 6.0 | 10.0 | 0.00 | 0.21 | 0.21 | 85 | 1015.1 |
| 20260901041037 | 80 | 215 | 5.0 | 9.0 | 0.00 | 0.21 | 0.21 | 85 | 1014.9 |
| 20260901040536 | 80 | 239 | 3.0 | 10.0 | 0.00 | 0.21 | 0.21 | 85 | 1014.9 |
| 20260901040036 | 80 | 231 | 2.0 | 9.0 | 0.00 | 0.21 | 0.21 | 85 | 1014.7 |
| 20260901035534 | 79 | 225 | 4.0 | 9.0 | 0.00 | 0.21 | 0.21 | 85 | 1015.0 |
| 20260901035033 | 79 | 219 | 3.0 | 7.0 | 0.00 | 0.21 | 0.21 | 86 | 1014.9 |
| 20260901034533 | 79 | 215 | 4.0 | 7.0 | 0.00 | 0.21 | 0.21 | 86 | 1015.0 |
| 20260901034028 | 79 | 208 | 4.0 | 5.0 | 0.00 | 0.21 | 0.21 | 86 | 1014.8 |
| 20260901033527 | 79 | 206 | 3.0 | 6.0 | 0.00 | 0.21 | 0.21 | 86 | 1015.1 |
| 20260901033022 | 80 | 245 | 3.0 | 8.0 | 0.00 | 0.21 | 0.21 | 85 | 1015.0 |
| 20260901032521 | 80 | 201 | 4.0 | 7.0 | 0.00 | 0.21 | 0.21 | 85 | 1015.1 |
| 20260901032016 | 80 | 199 | 5.0 | 9.0 | 0.00 | 0.21 | 0.21 | 85 | 1014.8 |
| 20260901031511 | 80 | 211 | 3.0 | 8.0 | 0.00 | 0.21 | 0.21 | 85 | 1014.8 |
| 20260901031007 | 80 | 203 | 3.0 | 6.0 | 0.00 | 0.21 | 0.21 | 86 | 1015.1 |
| 20260901030506 | 80 | 207 | 3.0 | 6.0 | 0.00 | 0.21 | 0.21 | 85 | 1015.0 |
| 20260901030001 | 80 | 182 | 2.0 | 5.0 | 0.00 | 0.21 | 0.21 | 85 | 1015.0 |
| 20260901025455 | 80 | 179 | 3.0 | 6.0 | 0.00 | 0.21 | 0.21 | 85 | 1015.1 |
| 20260901024955 | 80 | 217 | 4.0 | 8.0 | 0.00 | 0.21 | 0.21 | 85 | 1015.3 |
| 20260901024450 | 80 | 217 | 4.0 | 5.0 | 0.00 | 0.21 | 0.21 | 87 | 1015.3 |
| 20260901023948 | 80 | 219 | 2.0 | 9.0 | 0.00 | 0.21 | 0.21 | 86 | 1015.3 |
| 20260901023443 | 80 | 180 | 3.0 | 9.0 | 0.00 | 0.21 | 0.21 | 87 | 1015.1 |
| 20260901022938 | 79 | 244 | 3.0 | 9.0 | 0.00 | 0.21 | 0.21 | 88 | 1015.0 |
| 20260901022434 | 79 | 208 | 4.0 | 6.0 | 0.00 | 0.21 | 0.21 | 89 | 1015.1 |
| 20260901021928 | 79 | 225 | 2.0 | 9.0 | 0.00 | 0.21 | 0.21 | 90 | 1014.9 |
| 20260901021424 | 79 | 197 | 4.0 | 7.0 | 0.00 | 0.21 | 0.21 | 91 | 1014.8 |
| 20260901020919 | 79 | 211 | 3.0 | 6.0 | 0.00 | 0.21 | 0.21 | 91 | 1015.1 |
| 20260901020415 | 78 | 185 | 2.0 | 7.0 | 0.00 | 0.21 | 0.21 | 92 | 1015.0 |
| 20260901015913 | 78 | 192 | 3.0 | 5.0 | 0.00 | 0.21 | 0.21 | 92 | 1015.3 |
| 20260901015410 | 78 | 206 | 1.0 | 4.0 | 0.00 | 0.21 | 0.21 | 93 | 1015.0 |
| 20260901014909 | 78 | 178 | 1.0 | 4.0 | 0.00 | 0.21 | 0.21 | 93 | 1015.2 |
| 20260901014406 | 78 | 211 | 1.0 | 4.0 | 0.00 | 0.21 | 0.21 | 93 | 1015.0 |
| 20260901013901 | 78 | 215 | 2.0 | 4.0 | 0.00 | 0.21 | 0.21 | 93 | 1015.0 |
| 20260901013356 | 78 | 219 | 0.0 | 4.0 | 0.00 | 0.21 | 0.21 | 93 | 1015.0 |
| 20260901012852 | 77 | 208 | 1.0 | 5.0 | 0.00 | 0.21 | 0.21 | 94 | 1014.8 |
| 20260901012347 | 77 | 205 | 0.0 | 2.0 | 0.00 | 0.21 | 0.21 | 95 | 1014.9 |
| 20260901011843 | 77 | 186 | 1.0 | 2.0 | 0.00 | 0.21 | 0.21 | 95 | 1014.8 |
| 20260901011338 | 77 | 230 | 0.0 | 0.0 | 0.00 | 0.21 | 0.21 | 95 | 1015.1 |
| 20260901010831 | 77 | 255 | 0.0 | 1.0 | 0.00 | 0.21 | 0.21 | 95 | 1014.7 |
| 20260901010326 | 77 | 252 | 0.0 | 2.0 | 0.00 | 0.21 | 0.21 | 95 | 1014.7 |
| 20260901005825 | 77 | 284 | 0.0 | 2.0 | 0.00 | 0.21 | 0.21 | 95 | 1014.8 |
| 20260901005320 | 77 | 339 | 0.0 | 2.0 | 0.00 | 0.21 | 0.21 | 95 | 1014.6 |
| 20260901004820 | 77 | 287 | 1.0 | 2.0 | 0.00 | 0.21 | 0.21 | 94 | 1014.7 |
| 20260901004314 | 77 | 331 | 1.0 | 2.0 | 0.00 | 0.21 | 0.21 | 94 | 1014.7 |
| 20260901003814 | 77 | 281 | 1.0 | 2.0 | 0.00 | 0.21 | 0.21 | 93 | 1014.6 |
| 20260901003309 | 77 | 129 | 0.0 | 1.0 | 0.00 | 0.21 | 0.21 | 93 | 1014.5 |
| 20260901002803 | 78 | 250 | 2.0 | 3.0 | 0.00 | 0.21 | 0.21 | 92 | 1014.7 |
| 20260901002258 | 78 | 222 | 0.0 | 3.0 | 0.00 | 0.21 | 0.21 | 92 | 1014.3 |
| 20260901001753 | 78 | 204 | 1.0 | 6.0 | 0.00 | 0.21 | 0.21 | 91 | 1014.1 |
| 20260901001248 | 79 | 196 | 3.0 | 12.0 | 0.02 | 0.21 | 0.21 | 91 | 1014.1 |
| 20260901000743 | 80 | 203 | 3.0 | 9.0 | 0.17 | 0.21 | 0.21 | 91 | 1014.2 |
| 20260901000241 | 80 | 156 | 9.0 | 10.0 | 0.47 | 0.21 | 0.21 | 91 | 1014.0 |
| 20260831235737 | 81 | 198 | 7.0 | 14.0 | 0.45 | 0.18 | 0.18 | 90 | 1014.2 |
| 20260831235233 | 84 | 166 | 3.0 | 6.0 | 0.12 | 0.13 | 0.13 | 81 | 1015.4 |
| 20260831234733 | 84 | 206 | 2.0 | 3.0 | 0.00 | 0.11 | 0.11 | 81 | 1015.8 |
| 20260831234233 | 84 | 289 | 2.0 | 2.0 | 0.00 | 0.11 | 0.11 | 80 | 1015.1 |
| 20260831233728 | 85 | 296 | 1.0 | 2.0 | 0.00 | 0.11 | 0.11 | 80 | 1015.0 |
| 20260831233224 | 85 | 257 | 0.0 | 3.0 | 0.00 | 0.11 | 0.11 | 80 | 1015.1 |
| 20260831232723 | 85 | 218 | 0.0 | 3.0 | 0.00 | 0.11 | 0.11 | 79 | 1014.7 |
| 20260831232220 | 85 | 210 | 2.0 | 5.0 | 0.00 | 0.11 | 0.11 | 77 | 1014.8 |
| 20260831231716 | 86 | 222 | 4.0 | 5.0 | 0.00 | 0.11 | 0.11 | 76 | 1014.5 |
| 20260831231212 | 86 | 194 | 4.0 | 7.0 | 0.00 | 0.11 | 0.11 | 76 | 1014.4 |
| 20260831230712 | 86 | 155 | 5.0 | 7.0 | 0.00 | 0.11 | 0.11 | 75 | 1014.3 |
| 20260831230207 | 87 | 236 | 2.0 | 5.0 | 0.00 | 0.11 | 0.11 | 72 | 1014.5 |
| 20260831225706 | 88 | 197 | 4.0 | 6.0 | 0.00 | 0.11 | 0.11 | 69 | 1014.4 |
| 20260831225201 | 88 | 244 | 2.0 | 6.0 | 0.00 | 0.11 | 0.11 | 67 | 1014.3 |
| 20260831224656 | 88 | 202 | 9.0 | 10.0 | 0.00 | 0.11 | 0.11 | 67 | 1014.7 |
| 20260831224152 | 88 | 252 | 2.0 | 8.0 | 0.00 | 0.11 | 0.11 | 68 | 1015.0 |
| 20260831223647 | 89 | 242 | 3.0 | 6.0 | 0.00 | 0.11 | 0.11 | 68 | 1014.8 |
| 20260831223144 | 89 | 231 | 3.0 | 5.0 | 0.00 | 0.11 | 0.11 | 67 | 1014.5 |
| 20260831222639 | 90 | 286 | 2.0 | 9.0 | 0.00 | 0.11 | 0.11 | 67 | 1014.3 |
| 20260831222135 | 90 | 227 | 1.0 | 9.0 | 0.00 | 0.11 | 0.11 | 66 | 1014.3 |
| 20260831221630 | 90 | 218 | 3.0 | 8.0 | 0.00 | 0.11 | 0.11 | 65 | 1014.2 |
| 20260831221125 | 91 | 188 | 4.0 | 8.0 | 0.00 | 0.11 | 0.11 | 64 | 1014.0 |
| 20260831220620 | 91 | 252 | 3.0 | 8.0 | 0.00 | 0.11 | 0.11 | 63 | 1014.0 |
| 20260831220115 | 91 | 218 | 8.0 | 12.0 | 0.00 | 0.11 | 0.11 | 62 | 1014.1 |
| 20260831215611 | 91 | 191 | 7.0 | 11.0 | 0.00 | 0.11 | 0.11 | 64 | 1013.9 |
| 20260831215106 | 91 | 214 | 5.0 | 8.0 | 0.00 | 0.11 | 0.11 | 63 | 1013.9 |
| 20260831214604 | 92 | 210 | 4.0 | 6.0 | 0.00 | 0.11 | 0.11 | 62 | 1013.9 |
| 20260831214100 | 93 | 215 | 5.0 | 6.0 | 0.00 | 0.11 | 0.11 | 60 | 1014.1 |
| 20260831213556 | 93 | 234 | 3.0 | 5.0 | 0.00 | 0.11 | 0.11 | 59 | 1014.1 |
| 20260831213051 | 94 | 293 | 4.0 | 5.0 | 0.00 | 0.11 | 0.11 | 58 | 1014.2 |
| 20260831212547 | 94 | 276 | 2.0 | 4.0 | 0.00 | 0.11 | 0.11 | 59 | 1014.1 |
| 20260831212043 | 93 | 248 | 3.0 | 5.0 | 0.00 | 0.11 | 0.11 | 62 | 1014.5 |
| 20260831211537 | 91 | 298 | 2.0 | 9.0 | 0.00 | 0.11 | 0.11 | 64 | 1014.3 |
| 20260831211036 | 91 | 238 | 2.0 | 7.0 | 0.00 | 0.11 | 0.11 | 64 | 1014.3 |
| 20260831210531 | 91 | 208 | 4.0 | 7.0 | 0.00 | 0.10 | 0.10 | 61 | 1014.3 |
| 20260831210022 | 91 | 207 | 5.0 | 14.0 | 0.00 | 0.10 | 0.10 | 61 | 1014.2 |
| 20260831205516 | 91 | 209 | 4.0 | 7.0 | 0.00 | 0.10 | 0.10 | 64 | 1014.4 |
| 20260831205012 | 91 | 219 | 1.0 | 8.0 | 0.00 | 0.10 | 0.10 | 65 | 1014.2 |
| 20260831204507 | 90 | 212 | 5.0 | 11.0 | 0.00 | 0.10 | 0.10 | 64 | 1014.2 |
| 20260831204005 | 91 | 248 | 4.0 | 9.0 | 0.00 | 0.10 | 0.10 | 63 | 1014.4 |
| 20260831203505 | 92 | 202 | 4.0 | 10.0 | 0.00 | 0.10 | 0.10 | 61 | 1014.7 |
| 20260831203004 | 92 | 243 | 4.0 | 17.0 | 0.00 | 0.10 | 0.10 | 63 | 1014.4 |
| 20260831202458 | 91 | 196 | 7.0 | 16.0 | 0.00 | 0.10 | 0.10 | 62 | 1014.0 |
| 20260831201957 | 92 | 216 | 7.0 | 13.0 | 0.00 | 0.10 | 0.10 | 60 | 1014.1 |
| 20260831201456 | 90 | 222 | 5.0 | 17.0 | 0.00 | 0.10 | 0.10 | 64 | 1013.9 |
| 20260831200952 | 91 | 215 | 9.0 | 10.0 | 0.00 | 0.10 | 0.10 | 62 | 1013.9 |
| 20260831200447 | 90 | 231 | 6.0 | 10.0 | 0.00 | 0.10 | 0.10 | 63 | 1013.8 |
| 20260831195942 | 89 | 202 | 7.0 | 15.0 | 0.00 | 0.10 | 0.10 | 64 | 1014.2 |
| 20260831195437 | 89 | 194 | 3.0 | 9.0 | 0.00 | 0.10 | 0.10 | 64 | 1014.3 |
| 20260831194932 | 90 | 208 | 5.0 | 13.0 | 0.00 | 0.10 | 0.10 | 63 | 1014.5 |
| 20260831194428 | 91 | 218 | 2.0 | 15.0 | 0.00 | 0.10 | 0.10 | 62 | 1014.3 |
| 20260831193927 | 90 | 227 | 7.0 | 13.0 | 0.00 | 0.10 | 0.10 | 61 | 1014.6 |
| 20260831193417 | 91 | 201 | 5.0 | 12.0 | 0.00 | 0.10 | 0.10 | 61 | 1014.3 |
| 20260831192912 | 90 | 206 | 12.0 | 14.0 | 0.00 | 0.10 | 0.10 | 60 | 1014.4 |
| 20260831192407 | 90 | 216 | 13.0 | 17.0 | 0.00 | 0.10 | 0.10 | 60 | 1014.2 |
| 20260831191903 | 89 | 252 | 5.0 | 14.0 | 0.00 | 0.10 | 0.10 | 61 | 1014.2 |
| 20260831191358 | 90 | 215 | 9.0 | 14.0 | 0.00 | 0.10 | 0.10 | 60 | 1014.4 |
| 20260831190854 | 89 | 241 | 6.0 | 17.0 | 0.00 | 0.10 | 0.10 | 61 | 1014.4 |
| 20260831190354 | 89 | 225 | 9.0 | 24.0 | 0.00 | 0.10 | 0.10 | 61 | 1014.5 |
| 20260831185853 | 89 | 207 | 18.0 | 21.0 | 0.00 | 0.10 | 0.10 | 61 | 1014.5 |
| 20260831185350 | 88 | 223 | 5.0 | 19.0 | 0.00 | 0.10 | 0.10 | 63 | 1014.8 |
| 20260831184848 | 89 | 208 | 11.0 | 13.0 | 0.00 | 0.10 | 0.10 | 63 | 1014.8 |
| 20260831184344 | 88 | 220 | 13.0 | 13.0 | 0.00 | 0.10 | 0.10 | 64 | 1014.9 |
| 20260831183839 | 87 | 229 | 5.0 | 18.0 | 0.00 | 0.10 | 0.10 | 66 | 1014.5 |
| 20260831183339 | 87 | 252 | 3.0 | 13.0 | 0.00 | 0.10 | 0.10 | 66 | 1014.7 |
| 20260831182838 | 87 | 224 | 14.0 | 14.0 | 0.00 | 0.10 | 0.10 | 65 | 1014.8 |
| 20260831182333 | 87 | 174 | 10.0 | 14.0 | 0.00 | 0.10 | 0.10 | 64 | 1014.6 |
| 20260831181828 | 87 | 164 | 7.0 | 11.0 | 0.00 | 0.10 | 0.10 | 67 | 1014.8 |
| 20260831181323 | 86 | 216 | 5.0 | 11.0 | 0.00 | 0.10 | 0.10 | 68 | 1014.6 |
| 20260831180818 | 85 | 194 | 7.0 | 15.0 | 0.00 | 0.10 | 0.10 | 69 | 1014.8 |
| 20260831180313 | 85 | 194 | 2.0 | 10.0 | 0.00 | 0.10 | 0.10 | 72 | 1014.7 |
| 20260831175812 | 84 | 152 | 7.0 | 14.0 | 0.00 | 0.10 | 0.10 | 72 | 1015.0 |
| 20260831175309 | 83 | 206 | 3.0 | 15.0 | 0.00 | 0.10 | 0.10 | 74 | 1015.1 |
| 20260831174804 | 82 | 211 | 12.0 | 12.0 | 0.00 | 0.10 | 0.10 | 75 | 1015.3 |
| 20260831174300 | 82 | 127 | 4.0 | 11.0 | 0.00 | 0.10 | 0.10 | 77 | 1015.3 |
| 20260831173758 | 81 | 187 | 4.0 | 10.0 | 0.00 | 0.10 | 0.10 | 78 | 1015.2 |
| 20260831173253 | 79 | 159 | 6.0 | 11.0 | 0.00 | 0.10 | 0.10 | 81 | 1015.4 |
| 20260831172748 | 79 | 138 | 6.0 | 12.0 | 0.00 | 0.10 | 0.10 | 82 | 1015.6 |
| 20260831172243 | 78 | 202 | 4.0 | 9.0 | 0.00 | 0.10 | 0.10 | 83 | 1015.6 |
| 20260831171738 | 78 | 174 | 6.0 | 9.0 | 0.00 | 0.10 | 0.10 | 83 | 1015.8 |
| 20260831171235 | 78 | 212 | 3.0 | 8.0 | 0.00 | 0.10 | 0.10 | 83 | 1015.9 |
| 20260831170731 | 78 | 198 | 3.0 | 10.0 | 0.00 | 0.10 | 0.10 | 83 | 1016.0 |
| 20260831170222 | 77 | 148 | 4.0 | 7.0 | 0.00 | 0.10 | 0.10 | 84 | 1016.4 |
| 20260831165718 | 77 | 156 | 4.0 | 9.0 | 0.00 | 0.10 | 0.10 | 85 | 1016.4 |
| 20260831165214 | 76 | 153 | 3.0 | 10.0 | 0.00 | 0.10 | 0.10 | 85 | 1016.4 |
| 20260831164709 | 76 | 194 | 3.0 | 11.0 | 0.00 | 0.10 | 0.10 | 86 | 1016.3 |
| 20260831164206 | 76 | 187 | 4.0 | 8.0 | 0.00 | 0.10 | 0.10 | 86 | 1016.5 |
| 20260831163700 | 75 | 160 | 4.0 | 12.0 | 0.00 | 0.10 | 0.10 | 88 | 1016.1 |
| 20260831163156 | 74 | 194 | 9.0 | 10.0 | 0.00 | 0.10 | 0.10 | 89 | 1016.2 |
| 20260831162655 | 74 | 147 | 8.0 | 8.0 | 0.00 | 0.10 | 0.10 | 90 | 1016.4 |
| 20260831162153 | 73 | 196 | 5.0 | 11.0 | 0.02 | 0.10 | 0.10 | 91 | 1016.4 |
| 20260831161649 | 73 | 164 | 5.0 | 7.0 | 0.02 | 0.10 | 0.10 | 92 | 1016.4 |
| 20260831161145 | 74 | 154 | 5.0 | 9.0 | 0.00 | 0.09 | 0.09 | 90 | 1016.5 |
| 20260831160644 | 74 | 224 | 3.0 | 9.0 | 0.00 | 0.09 | 0.09 | 90 | 1016.8 |
| 20260831160140 | 74 | 144 | 4.0 | 6.0 | 0.00 | 0.09 | 0.09 | 90 | 1016.7 |
| 20260831155640 | 73 | 150 | 6.0 | 6.0 | 0.00 | 0.09 | 0.09 | 90 | 1016.9 |
| 20260831155136 | 73 | 172 | 4.0 | 4.0 | 0.00 | 0.09 | 0.09 | 91 | 1017.0 |
| 20260831154631 | 73 | 152 | 4.0 | 7.0 | 0.00 | 0.09 | 0.09 | 92 | 1016.7 |
| 20260831154126 | 73 | 139 | 4.0 | 7.0 | 0.00 | 0.09 | 0.09 | 91 | 1017.0 |
| 20260831153625 | 73 | 160 | 2.0 | 6.0 | 0.00 | 0.09 | 0.09 | 91 | 1017.0 |
| 20260831153122 | 72 | 167 | 3.0 | 7.0 | 0.00 | 0.09 | 0.09 | 91 | 1017.0 |
| 20260831152617 | 72 | 158 | 4.0 | 7.0 | 0.00 | 0.09 | 0.09 | 91 | 1016.7 |
| 20260831152113 | 72 | 109 | 3.0 | 9.0 | 0.00 | 0.09 | 0.09 | 92 | 1016.8 |
| 20260831151612 | 71 | 136 | 4.0 | 10.0 | 0.00 | 0.09 | 0.09 | 93 | 1016.7 |
| 20260831151108 | 71 | 146 | 4.0 | 10.0 | 0.00 | 0.09 | 0.09 | 94 | 1016.5 |
| 20260831150602 | 71 | 152 | 4.0 | 9.0 | 0.00 | 0.09 | 0.09 | 94 | 1016.7 |
| 20260831150058 | 71 | 145 | 8.0 | 10.0 | 0.02 | 0.09 | 0.09 | 94 | 1016.8 |
| 20260831145552 | 71 | 138 | 3.0 | 6.0 | 0.00 | 0.09 | 0.09 | 94 | 1016.8 |
| 20260831145048 | 70 | 130 | 1.0 | 7.0 | 0.05 | 0.09 | 0.09 | 95 | 1016.8 |
| 20260831144544 | 70 | 111 | 4.0 | 7.0 | 0.07 | 0.09 | 0.09 | 95 | 1016.9 |
| 20260831144039 | 71 | 161 | 4.0 | 7.0 | 0.05 | 0.08 | 0.08 | 95 | 1017.1 |
| 20260831143533 | 71 | 162 | 3.0 | 5.0 | 0.05 | 0.08 | 0.08 | 94 | 1017.2 |
| 20260831143029 | 70 | 174 | 2.0 | 7.0 | 0.05 | 0.07 | 0.07 | 95 | 1017.0 |
| 20260831142526 | 70 | 181 | 3.0 | 5.0 | 0.09 | 0.07 | 0.07 | 95 | 1017.0 |
| 20260831142021 | 70 | 173 | 2.0 | 4.0 | 0.07 | 0.07 | 0.07 | 94 | 1017.5 |
| 20260831141519 | 71 | 142 | 0.0 | 5.0 | 0.02 | 0.06 | 0.06 | 94 | 1017.1 |
| 20260831141014 | 70 | 131 | 2.0 | 6.0 | 0.02 | 0.06 | 0.06 | 94 | 1016.9 |
| 20260831140509 | 70 | 99 | 0.0 | 4.0 | 0.02 | 0.05 | 0.05 | 94 | 1016.9 |
| 20260831140009 | 70 | 137 | 3.0 | 6.0 | 0.02 | 0.05 | 0.05 | 94 | 1017.1 |
| 20260831135507 | 70 | 131 | 3.0 | 5.0 | 0.02 | 0.05 | 0.05 | 93 | 1017.1 |
| 20260831135001 | 70 | 93 | 2.0 | 3.0 | 0.02 | 0.05 | 0.05 | 93 | 1017.2 |
| 20260831134458 | 70 | 100 | 3.0 | 5.0 | 0.00 | 0.04 | 0.04 | 92 | 1016.9 |
| 20260831133957 | 70 | 131 | 2.0 | 6.0 | 0.02 | 0.04 | 0.04 | 92 | 1017.2 |
| 20260831133452 | 70 | 342 | 3.0 | 5.0 | 0.02 | 0.04 | 0.04 | 92 | 1017.6 |
| 20260831132947 | 70 | 123 | 2.0 | 3.0 | 0.00 | 0.04 | 0.04 | 91 | 1017.2 |
| 20260831132443 | 71 | 125 | 3.0 | 5.0 | 0.00 | 0.04 | 0.04 | 91 | 1017.1 |
| 20260831131942 | 71 | 99 | 2.0 | 2.0 | 0.00 | 0.04 | 0.04 | 91 | 1016.9 |
| 20260831131437 | 71 | 31 | 0.0 | 1.0 | 0.00 | 0.04 | 0.04 | 90 | 1017.2 |
| 20260831130933 | 71 | 269 | 0.0 | 2.0 | 0.00 | 0.04 | 0.04 | 89 | 1016.7 |
| 20260831130428 | 71 | 116 | 1.0 | 4.0 | 0.00 | 0.04 | 0.04 | 86 | 1016.6 |
| 20260831125928 | 71 | 137 | 2.0 | 5.0 | 0.00 | 0.04 | 0.04 | 87 | 1016.5 |
| 20260831125427 | 71 | 178 | 2.0 | 4.0 | 0.00 | 0.04 | 0.04 | 88 | 1016.5 |
| 20260831124923 | 71 | 136 | 2.0 | 5.0 | 0.00 | 0.04 | 0.04 | 88 | 1016.1 |
| 20260831124419 | 71 | 194 | 2.0 | 6.0 | 0.00 | 0.04 | 0.04 | 89 | 1016.2 |
| 20260831123915 | 71 | 193 | 3.0 | 6.0 | 0.00 | 0.04 | 0.04 | 88 | 1016.2 |
| 20260831123413 | 71 | 210 | 3.0 | 6.0 | 0.00 | 0.04 | 0.04 | 88 | 1015.9 |
| 20260831122908 | 71 | 173 | 2.0 | 8.0 | 0.02 | 0.04 | 0.04 | 88 | 1016.0 |
| 20260831122404 | 70 | 158 | 2.0 | 5.0 | 0.02 | 0.04 | 0.04 | 90 | 1015.7 |
| 20260831121858 | 70 | 208 | 4.0 | 8.0 | 0.07 | 0.04 | 0.04 | 90 | 1015.8 |
| 20260831121354 | 70 | 222 | 4.0 | 9.0 | 0.21 | 0.04 | 0.04 | 89 | 1015.6 |
| 20260831120850 | 72 | 208 | 5.0 | 9.0 | 0.14 | 0.02 | 0.02 | 86 | 1016.0 |
| 20260831120344 | 72 | 202 | 5.0 | 9.0 | 0.00 | 0.00 | 0.00 | 84 | 1015.7 |
| 20260831115839 | 72 | 189 | 3.0 | 6.0 | 0.00 | 0.00 | 0.00 | 84 | 1015.5 |
| 20260831115336 | 72 | 191 | 2.0 | 10.0 | 0.00 | 0.00 | 0.00 | 83 | 1015.4 |
| 20260831114835 | 73 | 239 | 1.0 | 6.0 | 0.00 | 0.00 | 0.00 | 83 | 1015.4 |
| 20260831114334 | 73 | 214 | 3.0 | 9.0 | 0.00 | 0.00 | 0.00 | 82 | 1015.3 |
| 20260831113830 | 73 | 181 | 5.0 | 11.0 | 0.00 | 0.00 | 0.00 | 80 | 1015.5 |
| 20260831113330 | 73 | 221 | 2.0 | 6.0 | 0.00 | 0.00 | 0.00 | 80 | 1015.5 |
| 20260831112824 | 74 | 211 | 5.0 | 13.0 | 0.00 | 0.00 | 0.00 | 79 | 1015.6 |
| 20260831112319 | 74 | 221 | 3.0 | 12.0 | 0.00 | 0.00 | 0.00 | 78 | 1015.6 |
| 20260831111814 | 74 | 207 | 11.0 | 13.0 | 0.00 | 0.00 | 0.00 | 77 | 1015.2 |
| 20260831111311 | 74 | 206 | 8.0 | 12.0 | 0.00 | 0.00 | 0.00 | 78 | 1015.3 |
| 20260831110806 | 74 | 194 | 6.0 | 9.0 | 0.00 | 0.00 | 0.00 | 78 | 1015.1 |
| 20260831110301 | 74 | 205 | 3.0 | 10.0 | 0.00 | 0.00 | 0.00 | 78 | 1015.4 |
| 20260831105759 | 74 | 203 | 3.0 | 10.0 | 0.00 | 0.00 | 0.00 | 78 | 1015.2 |
| 20260831105256 | 74 | 210 | 8.0 | 13.0 | 0.00 | 0.00 | 0.00 | 77 | 1015.1 |
| 20260831104755 | 74 | 204 | 6.0 | 11.0 | 0.00 | 0.00 | 0.00 | 77 | 1015.0 |
| 20260831104252 | 74 | 204 | 7.0 | 10.0 | 0.00 | 0.00 | 0.00 | 77 | 1015.2 |
| 20260831103752 | 74 | 216 | 3.0 | 8.0 | 0.00 | 0.00 | 0.00 | 77 | 1015.2 |
| 20260831103247 | 74 | 183 | 6.0 | 10.0 | 0.00 | 0.00 | 0.00 | 78 | 1014.8 |
| 20260831102742 | 74 | 211 | 3.0 | 11.0 | 0.00 | 0.00 | 0.00 | 78 | 1015.1 |
| 20260831102237 | 74 | 203 | 3.0 | 11.0 | 0.00 | 0.00 | 0.00 | 79 | 1015.3 |
| 20260831101732 | 73 | 204 | 4.0 | 10.0 | 0.00 | 0.00 | 0.00 | 79 | 1015.1 |
| 20260831101228 | 73 | 201 | 2.0 | 10.0 | 0.00 | 0.00 | 0.00 | 79 | 1015.2 |
| 20260831100724 | 73 | 212 | 4.0 | 10.0 | 0.00 | 0.00 | 0.00 | 80 | 1015.0 |
| 20260831100220 | 73 | 132 | 0.0 | 7.0 | 0.00 | 0.00 | 0.00 | 80 | 1015.0 |
| 20260831095718 | 74 | 195 | 3.0 | 8.0 | 0.00 | 0.00 | 0.00 | 80 | 1015.1 |
| 20260831095213 | 74 | 201 | 3.0 | 9.0 | 0.00 | 0.00 | 0.00 | 80 | 1015.2 |
| 20260831094713 | 74 | 220 | 3.0 | 8.0 | 0.00 | 0.00 | 0.00 | 80 | 1015.3 |
| 20260831094209 | 74 | 202 | 4.0 | 10.0 | 0.00 | 0.00 | 0.00 | 79 | 1015.3 |
| 20260831093705 | 74 | 203 | 3.0 | 7.0 | 0.00 | 0.00 | 0.00 | 79 | 1015.2 |
| 20260831093200 | 74 | 226 | 5.0 | 7.0 | 0.00 | 0.00 | 0.00 | 79 | 1015.4 |
| 20260831092656 | 74 | 189 | 2.0 | 5.0 | 0.00 | 0.00 | 0.00 | 80 | 1015.2 |
| 20260831092152 | 74 | 204 | 4.0 | 9.0 | 0.00 | 0.00 | 0.00 | 79 | 1015.2 |
| 20260831091651 | 74 | 209 | 4.0 | 7.0 | 0.00 | 0.00 | 0.00 | 80 | 1015.4 |
| 20260831091147 | 74 | 159 | 5.0 | 8.0 | 0.00 | 0.00 | 0.00 | 80 | 1015.5 |
| 20260831090642 | 74 | 162 | 5.0 | 8.0 | 0.00 | 0.00 | 0.00 | 80 | 1015.5 |
| 20260831090138 | 74 | 223 | 4.0 | 8.0 | 0.00 | 0.00 | 0.00 | 79 | 1015.5 |
| 20260831085633 | 74 | 221 | 4.0 | 6.0 | 0.00 | 0.00 | 0.00 | 80 | 1015.3 |
| 20260831085129 | 74 | 224 | 4.0 | 8.0 | 0.00 | 0.00 | 0.00 | 80 | 1015.2 |
| 20260831084625 | 74 | 212 | 8.0 | 9.0 | 0.00 | 0.00 | 0.00 | 80 | 1015.5 |
| 20260831084121 | 74 | 189 | 4.0 | 7.0 | 0.00 | 0.00 | 0.00 | 81 | 1015.4 |
| 20260831083616 | 74 | 200 | 5.0 | 8.0 | 0.00 | 0.00 | 0.00 | 81 | 1015.4 |
| 20260831083111 | 74 | 167 | 4.0 | 10.0 | 0.00 | 0.00 | 0.00 | 82 | 1015.4 |
| 20260831082610 | 74 | 198 | 5.0 | 8.0 | 0.00 | 0.00 | 0.00 | 83 | 1015.4 |
| 20260831082105 | 74 | 203 | 2.0 | 8.0 | 0.00 | 0.00 | 0.00 | 83 | 1015.5 |
| 20260831081601 | 74 | 167 | 3.0 | 8.0 | 0.00 | 0.00 | 0.00 | 83 | 1015.5 |
| 20260831081057 | 74 | 180 | 3.0 | 7.0 | 0.00 | 0.00 | 0.00 | 83 | 1015.3 |
| 20260831080552 | 74 | 184 | 2.0 | 7.0 | 0.00 | 0.00 | 0.00 | 83 | 1015.3 |
| 20260831080047 | 74 | 166 | 2.0 | 9.0 | 0.00 | 0.00 | 0.00 | 83 | 1015.3 |
| 20260831075542 | 74 | 190 | 4.0 | 7.0 | 0.00 | 0.00 | 0.00 | 83 | 1015.2 |
| 20260831075038 | 74 | 175 | 4.0 | 9.0 | 0.00 | 0.00 | 0.00 | 83 | 1015.2 |
| 20260831074537 | 74 | 200 | 4.0 | 7.0 | 0.00 | 0.00 | 0.00 | 82 | 1015.2 |
| 20260831074037 | 75 | 169 | 3.0 | 8.0 | 0.00 | 0.00 | 0.00 | 82 | 1015.5 |
| 20260831073532 | 75 | 188 | 4.0 | 7.0 | 0.00 | 0.00 | 0.00 | 82 | 1015.5 |
| 20260831073032 | 75 | 180 | 3.0 | 6.0 | 0.00 | 0.00 | 0.00 | 82 | 1015.5 |
| 20260831072527 | 75 | 214 | 1.0 | 5.0 | 0.00 | 0.00 | 0.00 | 82 | 1015.5 |
| 20260831072024 | 75 | 155 | 2.0 | 4.0 | 0.00 | 0.00 | 0.00 | 81 | 1015.5 |
| 20260831071522 | 75 | 137 | 4.0 | 7.0 | 0.00 | 0.00 | 0.00 | 81 | 1015.5 |
| 20260831071018 | 75 | 159 | 1.0 | 5.0 | 0.00 | 0.00 | 0.00 | 81 | 1015.6 |
| 20260831070516 | 75 | 154 | 3.0 | 7.0 | 0.00 | 0.00 | 0.00 | 81 | 1015.5 |
| 20260831070011 | 75 | 184 | 3.0 | 9.0 | 0.00 | 0.00 | 0.00 | 81 | 1015.6 |
| 20260831065509 | 76 | 127 | 3.0 | 6.0 | 0.00 | 0.00 | 0.00 | 80 | 1015.5 |
| 20260831065003 | 76 | 150 | 2.0 | 8.0 | 0.00 | 0.00 | 0.00 | 80 | 1015.6 |
| 20260831064458 | 76 | 163 | 2.0 | 7.0 | 0.00 | 0.00 | 0.00 | 79 | 1015.9 |
| 20260831063954 | 76 | 126 | 6.0 | 7.0 | 0.00 | 0.00 | 0.00 | 80 | 1015.6 |
| 20260831063449 | 76 | 183 | 3.0 | 5.0 | 0.00 | 0.00 | 0.00 | 80 | 1015.8 |
| 20260831062943 | 76 | 129 | 4.0 | 9.0 | 0.00 | 0.00 | 0.00 | 79 | 1015.5 |
| 20260831062439 | 76 | 138 | 3.0 | 5.0 | 0.00 | 0.00 | 0.00 | 79 | 1015.4 |
| 20260831061938 | 76 | 112 | 2.0 | 8.0 | 0.00 | 0.00 | 0.00 | 79 | 1015.6 |
| 20260831061436 | 76 | 201 | 2.0 | 7.0 | 0.00 | 0.00 | 0.00 | 79 | 1015.6 |
| 20260831060933 | 76 | 203 | 7.0 | 8.0 | 0.00 | 0.00 | 0.00 | 79 | 1015.5 |
| 20260831060427 | 76 | 192 | 5.0 | 8.0 | 0.00 | 0.00 | 0.00 | 79 | 1015.4 |
| 20260831055927 | 76 | 187 | 0.0 | 6.0 | 0.00 | 0.00 | 0.00 | 80 | 1015.2 |
| 20260831055422 | 76 | 209 | 6.0 | 11.0 | 0.00 | 0.00 | 0.00 | 80 | 1015.2 |